Location: Albany
(35.0000°S, 118.0000°E)
Time: 12:31:49
(UTC-04:00)

N. Korean satellite - Visible Passes

Search period start: 22 June 2021 00:00
Search period end: 02 July 2021 00:00
Orbit: 450 x 499 km, 97.2° (Epoch: 21 June)

Date Brightness Start Highest point End Pass type
(mag) Time Alt. Az. Time Alt. Az. Time Alt. Az.
23 Jun 9.2 06:14:30 10° SSW 06:17:00 18° WSW 06:19:27 10° WNW visible
24 Jun 7.7 05:46:31 10° S 05:49:52 43° WSW 05:53:08 10° NNW visible
26 Jun 9.5 06:26:30 10° SW 06:28:13 13° WSW 06:29:55 10° W visible
27 Jun 8.4 05:58:02 10° SSW 06:01:07 29° WSW 06:04:08 10° NW visible
28 Jun 6.6 05:30:24 10° S 05:33:54 77° WSW 05:37:18 10° NNW visible
30 Jun 9.0 06:09:39 10° SSW 06:12:18 21° WSW 06:14:56 10° WNW visible
01 Jul 7.4 05:41:45 10° S 05:45:07 50° WSW 05:48:26 10° NNW visible
